Volver al catálogo

MIDAS 4 DEB

ActivoPO
NORAD 194·DEBRIS·🇺🇸 United States

Lanzado Oct 21, 1961 desde Vandenberg Space Force Base

Loading…

Próximos Pases (próximas 24 horas)

TLE

ActualizadoSource: Space-Track

Época: Sep 14, 2026, 00:52 UTC

1 00194U 61028C   26257.03671787 -.00000013  00000-0 -43675-2 0  9995
2 00194  95.8456 267.7833 0421151  94.1917 270.7170  8.70122253 60868

Sigue MIDAS 4 DEB en tiempo real con AllMySat

Download on the App Store